Location: Unspecified
(0.0000°N, 0.0000°E)
Time: 05:18:18
(UTC+00:00)

A-11 Canister half - All Passes

Search period start: 21 May 2026 00:00
Search period end: 31 May 2026 00:00
Orbit: 1523 x 1684 km, 47.3° (Epoch: 20 May)

Date Brightness Start Highest point End Pass type
(mag) Time Alt. Az. Time Alt. Az. Time Alt. Az.
21 May - 00:23:07 10° NW 00:33:17 87° SW 00:43:27 10° SE night (unlit)
21 May - 02:32:25 10° W 02:38:36 18° SW 02:44:47 10° S night (unlit)
21 May - 11:11:23 10° SSW 11:19:59 41° SE 11:28:31 10° ENE daylight
21 May - 13:16:14 10° WSW 13:24:43 41° NW 13:33:17 10° NNE daylight
21 May - 21:59:51 10° N 22:06:06 18° NE 22:12:23 10° E visible
22 May - 00:01:15 10° NW 00:11:25 88° NE 00:21:35 10° SE visible
22 May - 02:10:01 10° W 02:16:40 19° SW 02:23:19 10° S night (unlit)
22 May - 10:49:41 10° SSW 10:58:09 38° SE 11:06:30 10° ENE daylight
22 May - 12:54:14 10° WSW 13:02:53 44° NW 13:11:35 10° NNE daylight
22 May - 21:38:25 10° N 21:44:10 16° NE 21:49:55 10° E visible
22 May - 23:39:22 10° NW 23:49:32 83° NE 23:59:42 10° SE visible
23 May - 01:47:40 10° W 01:54:44 21° SW 02:01:49 10° S night (unlit)
23 May - 10:27:59 10° SSW 10:36:17 35° SE 10:44:28 10° ENE daylight
23 May - 12:32:15 10° WSW 12:41:02 47° NW 12:49:51 10° NNE daylight
23 May - 21:17:05 10° NNE 21:22:13 15° NE 21:27:22 10° ENE visible
23 May - 23:17:32 10° NW 23:27:39 78° NE 23:37:48 10° SE visible
24 May - 01:25:23 10° W 01:32:49 23° SW 01:40:16 10° S night (unlit)
24 May - 10:06:19 10° SSW 10:14:26 33° SE 10:22:26 10° ENE daylight
24 May - 12:10:17 10° WSW 12:19:12 51° NW 12:28:08 10° NNE daylight
24 May - 20:55:51 10° NNE 21:00:16 13° NE 21:04:42 10° ENE visible
24 May - 22:55:42 10° NNW 23:05:46 73° NE 23:15:54 10° SE visible
25 May - 01:03:08 10° W 01:10:53 25° SW 01:18:41 10° S night (unlit)
25 May - 09:44:40 10° S 09:52:34 30° SE 10:00:20 10° ENE daylight
25 May - 11:48:21 10° SW 11:57:21 55° NW 12:06:23 10° NNE daylight
25 May - 20:34:48 10° NNE 20:38:18 12° NE 20:41:49 10° ENE visible
25 May - 22:33:53 10° NNW 22:43:53 68° NE 22:53:58 10° SE visible
26 May - 00:40:55 10° WNW 00:48:59 27° SW 00:57:04 10° S night (unlit)
26 May - 09:23:02 10° S 09:30:42 28° SE 09:38:15 10° ENE daylight
26 May - 11:26:24 10° SW 11:35:32 59° NW 11:44:37 10° NNE daylight
26 May - 20:14:10 10° NNE 20:16:21 11° NE 20:18:32 10° ENE visible
26 May - 22:12:05 10° NNW 22:22:00 64° NE 22:32:02 10° SE visible
27 May - 00:18:44 10° WNW 00:27:04 29° SW 00:35:26 10° S night (unlit)
27 May - 09:01:24 10° S 09:08:50 26° SE 09:16:07 10° E daylight
27 May - 11:04:29 10° SW 11:13:41 64° NW 11:22:51 10° NNE daylight
27 May - 21:50:18 10° NNW 22:00:07 59° NE 22:10:03 10° SE visible
27 May - 23:56:35 10° WNW 00:05:09 31° SW 00:13:47 10° S night (unlit)
28 May - 08:39:48 10° S 08:46:58 24° SE 08:53:58 10° E daylight
28 May - 10:42:35 10° SW 10:51:52 69° NW 11:01:04 10° NNE daylight
28 May - 12:54:56 10° WNW 12:57:13 11° NW 12:59:31 10° NNW daylight
28 May - 21:28:32 10° NNW 21:38:14 55° NE 21:48:05 10° SE visible
28 May - 23:34:29 10° WNW 23:43:15 34° SW 23:52:06 10° SSE visible
29 May - 08:18:13 10° S 08:25:04 22° SE 08:31:46 10° E daylight
29 May - 10:20:41 10° SW 10:30:02 74° NW 10:39:16 10° NNE daylight
29 May - 12:31:53 10° WNW 12:35:18 12° NW 12:38:43 10° NNW daylight
29 May - 21:06:46 10° NNW 21:16:21 51° NE 21:26:06 10° ESE visible
29 May - 23:12:23 10° WNW 23:21:20 36° SW 23:30:24 10° SSE visible
30 May - 07:56:41 10° S 08:03:11 20° SE 08:09:33 10° E daylight
30 May - 09:58:48 10° SW 10:08:12 79° NW 10:17:28 10° NE daylight
30 May - 12:09:10 10° WNW 12:13:23 14° NW 12:17:36 10° NNW daylight
30 May - 20:45:01 10° NNW 20:54:29 48° NE 21:04:05 10° ESE visible
30 May - 22:50:19 10° WNW 22:59:27 39° SW 23:08:41 10° SSE visible
